Погода Ханты-Мансийск

Хотите узнать прогноз погоды Ханты-Мансийск? Тогда Вам сюда: Погода Ханты-Мансийск

Поиск расширенной информации на нашем сайте:

Полезная информация:

Новости сайта



02.01.2020
Опубликован Долгосрочный прогноз погоды по городам России и ближнего зарубежья на январь 2020 года.
Карты: Прогноз на январь и февраль 2020 года, Сравнение прогнозируемой аномалии приземной температуры воздуха на январь 2020 года по разным моделям.




Погода Ханты-Мансийск - сегодня

Время (UTC), дата Ветер
(°,м/с) 
Видим.   Явления Облачность Т
(°С)
Тd
(°С)
f(%) Тe
(°С)
Pmin
(гПа)
dP
(гПа)
Po
(мм)
O2
(г/м3)
Тmin Tmax R s Состояние
почвы
15 02.07.20 тихо ()   10 км    ясно 
+18.1 +9.8 58 +19  1013.9  0.1  757  284    +21       
18 02.07.20 280 (З) 10 км    ясно 
+12.3 +10.5 89 +16  1013.9  0.1  756  290           
21 02.07.20 тихо ()   10 км  туман поземный  3/0 верхняя 
[Ci fib]
+10.8 +9.7 93 +11  1013.4  -0.6  756  291           
00 03.07.20 тихо ()   10 км    ясно 
+11 +9.9 93 +12  1013.8  0.5  756  291           
03 03.07.20 340 (С) 10 км    ясно 
+18.8 +9.5 55 +20  1014  0.3  757  284  +10         
06 03.07.20 280 (З) 10 км    ясно 
+22.1 +8.5 42 +22  1013.4  -0.6  756  280           
09 03.07.20 290 (З) 10 км    ясно 
+23.6 +6.7 34 +24  1013.2  -0.2  756  279           
12 03.07.20 310 (СЗ) 10 км    3/3 600 м 
[Cu med, cong]
+24.3 +6.7 32 +24  1012.9  -0.2  756  279           
15 03.07.20 320 (СЗ) 10 км    ясно 
+21 +10.5 51 +23  1012.5  -0.5  755  281    +24.4       
18 03.07.20 тихо ()   10 км    ясно 
+14.9 +11.5 80 +18  1012.8  0.2  756  287           
21 03.07.20 тихо ()   10 км    ясно 
+12.7 +10.6 87 +15  1012.8  756  289           
00 04.07.20 280 (З) 10 км    ясно 
+13.7 +11.7 88 +18  1012.5  -0.3  755  288           
03 04.07.20 340 (С) 10 км    ясно 
+21.3 +11.6 54 +24  1012.8  0.5  756  280  +11.9         
06 04.07.20 330 (СЗ) 10 км    ясно 
+24.7 +7.8 34 +25  1012.3  -0.5  755  278           
09 04.07.20 290 (З) 10 км    ясно 
+25.6 +10 37 +27  1012  -0.3  755  276           
12 04.07.20 300 (СЗ) 10 км    8/8 1500 м 
[Sc]
+23.2 +10.6 45 +25  1011.8  -0.2  755  279           
15 04.07.20 тихо ()   10 км    3/0 средняя 
[Ac cast]
+21.7 +12.4 55 +26  1011.8  0.1  755  279    +26.4       
18 04.07.20 тихо ()   10 км    3/3 1000 м 
[Sc diur, vesp]
+15.8 +12.3 80 +20  1011.9  755  285           
21 04.07.20 тихо ()   10 км    ясно 
+14.1 +11.8 86 +18  1011.6  -0.3  755  287           
00 05.07.20 тихо ()   10 км    ясно 
+14.4 +13 91 +20  1011.6  755  286           
03 05.07.20 140 (ЮВ) 10 км    3/3 1000 м 
[Cu hum]
+22 +14.2 61 +29  1011.5  755  279  +13         
06 05.07.20 150 (ЮВ) 10 км    3/3 1500 м 
[Cu med, cong]
+25 +11.5 43 +28  1010.6  -0.9  754  276           
09 05.07.20 270 (З) 10 км    3/3 1500 м 
[Cu med, cong]
+26.9 +7.6 29 +27  1009.5  -1.1  753  275           
12 05.07.20 230 (ЮЗ) 10 км    3/1 1500 м верхняя 
[Cu med, cong|Ci]
+27.3 +7.5 29 +27  1008.6  -0.8  753  275           
15 05.07.20 330 (СЗ) 10 км    8/6 1000 м средняя 
[Sc|Ac cast]
+21.2 +13.7 62 +28  1008.9  0.2  753  279    +27.6       
Время (UTC), дата Ветер
(°,м/с) 
Видим.   Явления Облачность Т
(°С)
Тd
(°С)
f(%) Тe
(°С)
Pmin
(гПа)
dP
(гПа)
Po
(мм)
O2
(г/м3)
Тmin Tmax R s Состояние
почвы

Для получения пояснительной информации подведите курсор к названию столбца.

ПОГОДА Ханты-Мансийск - архив

Всё, что Вы хотите узнать о погоде Ханты-Мансийск - удобно и подробно!

Выберите нужную дату (начиная с 1 января 2019* года) и нажмите кнопку "Найти".
Будут отображены архивные сводки погоды по пункту Ханты-Мансийск, начиная с указанной даты.


Отображать данные в формате CSV (для использования в таблицах Excel)


Внимание! Наш архив погоды предназначен исключительно для личного некоммерческого использования в познавательных целях. Если Вам необходимы официальные справки о состоянии погоды (для производственных, юридических, коммерческих и т.п. целей), обращайтесь в органы Росгидромета.

*Примечание: данная дата относится к архиву по метеостанциям СССР (Россия, СНГ, Балтия).
Архив по метеостанциям Зарубежной Европы и Азии (кроме Китая) хранится 10 дней, по другим регионам земного шара (Китай, Африка, Америка, Австралия, Океания) - 1 день.

Ханты-Мансийск - район местоположения метеостанции


Название, широта, долгота, высота метеостанции:
Ханты-Мансийск 61°ш. 69°д. 46 м над ур. моря [Российская Федерация]

Дополнительная информация

В oтличие oт бoльшинства пoгoдных сайтoв мы публикуем пoдрoбную метеoинфoрмацию в детальнoм прoфессиoнальнoм фoрмате.

Характеристики температуры и влажнoсти вoздуха измеряются на высoте 2 м в тени вдали oт зданий и деревьев.
Скoрoсть ветра измеряется на высoте 10 м (на урoвне рoста челoвека скoрoсть ветра ниже в 1.5-2 раза). Если метеoстанция нахoдится в гoрoде или в лесу, тo скoрoсть ветра занижена на 2-4 м/с пo сравнению с oткрытым местoм. Скoрoсть ветра над акватoриями крупных рек и oзёр, а также на вершинах хoлмoв на 2-5 м/с выше, чем в oбычных услoвиях.
Атмoсфернoе давление в разных тoчках местнoсти мoжет значительнo oтличаться oт давления на метеoстанции, в зависимoсти oт услoвий рельефа (при пoдъёме на 10 м давление пoнижается примернo на 1 мм рт.ст.).